Temp_Advection
nan nan nan nan nan nan nan nan nan nan nan nan nan nan nan nan nan nan nan nan nan nan nan nan nan nan nan
nan 1 1 1 1 0 0 0 -0 -0 0 0 -0 0 0 0 -0 -0 0 0 0 0 0 0 0 1 nan
nan 1 1 1 0 0 0 0 0 -0 0 0 0 0 0 0 -0 -0 -0 -0 -0 0 -0 0 1 1 nan
nan 1 1 1 0 0 0 0 0 -0 0 0 0 0 -0 -0 -0 -0 -0 0 -0 -0 0 0 0 0 nan
nan 1 1 0 0 -0 -0 0 0 0 0 0 -0 0 0 -0 -0 -0 -0 -0 -0 -0 0 1 0 -0 nan
nan 0 0 -0 0 0 0 0 0 -0 0 0 0 0 0 -0 -0 -0 -0 0 0 -0 -0 1 1 1 nan
nan 0 0 0 0 0 0 0 0 -0 -0 0 0 0 0 -0 -0 0 0 -0 -0 -0 0 1 1 1 nan
nan 0 0 0 0 -0 0 0 0 -0 -0 -0 -0 -0 0 0 0 0 0 0 -0 -0 0 0 0 -0 nan
nan -0 -0 -0 -0 -0 -0 -0 -0 -0 -0 -0 -1 -1 -1 0 0 0 0 0 0 0 0 0 0 -0 nan
nan -0 -0 -0 -0 -0 -0 -0 -0 -0 -0 -0 -1 -1 -1 -1 0 0 0 0 0 0 0 0 0 -0 nan
nan -0 -0 -0 -0 -0 -0 -0 -0 0 0 -0 -0 -0 -1 -3 -2 0 0 0 0 0 0 0 0 -0 nan
nan -0 -0 -0 -0 -0 -0 -0 0 0 0 0 0 0 0 -1 -3 -2 -1 0 0 -0 0 1 1 0 nan
nan -0 -0 -0 -0 -0 0 0 0 0 0 0 0 0 1 1 -1 -2 -2 -2 0 -0 -0 -0 0 0 nan
nan -0 -0 -0 0 -0 -0 -0 -0 0 1 1 1 0 0 1 -0 -1 1 -1 -2 -0 -1 -1 -1 0 nan
nan -0 -0 -0 -0 -0 -0 -0 -0 -0 0 1 1 1 1 1 -0 -1 -1 0 -0 -0 -1 -2 -1 0 nan
nan 0 -0 -0 -0 -0 -0 -0 -0 -0 0 0 0 -1 -1 -0 1 -0 -1 -1 -1 0 1 -1 -3 -0 nan
nan nan nan nan nan nan nan nan nan nan nan nan nan nan nan nan nan nan nan nan nan nan nan nan nan nan nan
Wind_Speed
19 17 18 19 22 23 23 21 20 18 17 17 16 16 16 16 16 16 18 19 20 19 22 22 22 22 20
16 19 19 18 19 19 18 17 17 16 15 15 15 15 15 16 15 18 19 18 19 19 21 22 22 20 17
16 19 19 18 17 17 16 15 15 14 14 14 14 14 14 16 16 17 17 17 18 18 19 20 19 15 15
17 18 18 17 16 15 13 12 12 12 13 12 11 12 14 15 14 16 17 17 17 17 16 16 17 17 18
18 19 17 15 14 12 10 9 10 11 10 9 12 13 12 12 14 15 17 17 15 14 16 16 16 19 21
15 15 13 11 9 7 6 6 7 8 9 9 10 11 11 13 15 17 16 14 13 17 18 20 20 20 21
11 11 9 6 4 4 4 5 7 9 10 9 10 10 12 16 18 16 11 12 17 19 21 21 21 20 22
10 8 5 2 0 2 4 5 6 7 12 13 12 13 15 17 15 9 11 16 18 20 20 23 24 26 26
9 6 4 4 4 5 6 9 10 12 12 13 17 19 17 14 9 7 20 18 19 20 22 24 26 26 25
7 5 4 4 7 9 9 10 11 11 12 18 19 20 14 11 12 24 19 17 22 22 23 25 23 25 25
5 5 6 5 7 8 9 11 13 14 15 19 21 21 20 25 26 27 24 26 25 24 24 20 23 22 26
3 4 5 6 8 9 11 12 14 15 16 17 21 22 23 28 32 31 31 29 27 24 21 27 25 22 24
2 2 4 6 8 10 12 14 15 17 18 19 21 22 24 28 32 34 35 31 26 26 27 28 31 30 29
1 4 6 9 11 14 16 17 19 18 18 20 21 22 26 28 31 34 31 31 29 28 29 31 33 33 27
5 7 9 11 14 17 19 20 22 23 23 23 25 25 25 27 31 30 27 27 29 31 32 36 34 34 33
10 11 12 14 16 19 22 23 24 25 25 26 28 30 33 32 26 24 30 30 31 33 35 37 39 34 33
14 16 17 17 19 23 25 26 27 27 26 27 28 29 32 35 36 27 27 34 35 35 33 33 37 35 32
Wind_Direction
225 229 234 238 240 242 242 244 251 257 264 269 274 277 279 278 279 284 289 289 295 301 298 297 297 297 300
227 224 226 232 234 235 239 241 247 255 262 265 267 272 274 275 283 288 289 294 295 297 294 297 299 300 304
235 225 224 226 223 223 227 237 249 255 259 264 269 271 275 282 288 289 291 290 294 296 298 299 301 295 300
227 220 219 217 215 220 230 242 252 260 265 272 273 282 283 284 288 286 287 296 306 307 309 310 307 301 304
215 207 207 209 210 218 231 248 267 275 278 283 290 288 284 285 289 295 303 308 309 310 309 306 302 295 296
204 201 193 192 206 225 244 262 286 286 291 293 290 289 284 299 302 306 308 306 308 308 306 306 303 301 304
179 172 179 185 208 244 282 299 293 295 302 306 303 307 303 306 303 304 301 307 308 310 307 303 302 300 300
146 150 150 152 174 310 301 294 309 322 329 319 315 311 308 305 302 288 316 315 310 309 304 302 299 304 305
126 120 121 73 19 340 343 354 343 328 319 317 320 319 319 313 296 281 319 311 308 306 304 303 303 303 305
104 96 83 22 345 348 343 335 334 332 320 322 323 329 325 312 298 306 308 305 312 310 308 305 302 305 306
88 50 357 354 348 339 336 336 335 335 323 319 318 319 312 307 308 313 315 316 315 313 310 305 309 305 305
7 26 10 353 345 341 334 330 328 327 326 320 313 313 307 304 304 311 313 314 315 314 310 309 307 304 301
36 2 348 341 339 335 330 327 329 328 325 322 316 310 303 300 300 305 313 315 315 317 311 306 306 310 311
305 334 339 337 329 326 326 323 321 322 316 314 315 311 306 302 299 302 311 305 313 314 308 304 305 308 314
313 320 322 327 328 322 317 315 314 316 317 317 314 314 308 303 300 306 310 307 311 315 314 310 307 310 312
300 305 312 314 315 318 315 315 312 313 314 316 318 320 317 312 311 311 311 312 316 316 314 311 308 310 310
300 306 302 307 315 320 316 315 312 311 315 320 322 322 319 313 314 312 311 315 315 310 309 307 306 309 312
Height
1499 1502 1503 1504 1506 1509 1511 1514 1516 1515 1515 1516 1514 1514 1513 1510 1509 1510 1508 1508 1505 1503 1504 1503 1500 1498 1496
1495 1497 1499 1501 1503 1505 1508 1509 1512 1511 1511 1510 1509 1508 1507 1507 1504 1504 1504 1501 1500 1496 1499 1496 1494 1492 1491
1492 1494 1496 1498 1500 1502 1504 1506 1507 1507 1506 1506 1505 1504 1502 1502 1499 1499 1498 1497 1494 1492 1491 1489 1487 1487 1484
1488 1491 1493 1495 1497 1499 1501 1502 1503 1503 1503 1502 1501 1500 1499 1497 1494 1495 1494 1491 1488 1487 1484 1483 1480 1482 1479
1485 1488 1491 1494 1496 1498 1499 1500 1501 1501 1499 1498 1498 1496 1495 1493 1492 1489 1487 1485 1483 1481 1479 1478 1476 1477 1474
1484 1488 1490 1493 1495 1497 1497 1497 1498 1497 1496 1496 1494 1493 1492 1489 1487 1484 1481 1480 1479 1477 1475 1473 1470 1470 1465
1485 1488 1490 1492 1494 1495 1495 1495 1495 1494 1493 1492 1490 1489 1487 1484 1481 1479 1478 1476 1474 1472 1469 1467 1465 1462 1458
1486 1488 1490 1491 1492 1493 1493 1493 1492 1490 1488 1487 1486 1485 1482 1478 1476 1474 1474 1472 1469 1467 1464 1462 1458 1454 1450
1487 1489 1490 1490 1490 1491 1490 1489 1489 1488 1486 1484 1482 1478 1476 1473 1471 1471 1470 1468 1465 1462 1459 1455 1450 1446 1443
1487 1488 1489 1490 1489 1487 1488 1488 1487 1485 1483 1481 1478 1475 1471 1469 1468 1467 1466 1463 1459 1455 1452 1448 1444 1439 1436
1487 1488 1488 1488 1488 1487 1487 1485 1484 1482 1480 1476 1474 1472 1470 1465 1461 1459 1457 1455 1451 1448 1444 1441 1438 1434 1429
1486 1486 1486 1487 1486 1485 1484 1483 1481 1479 1477 1474 1470 1468 1465 1460 1455 1452 1450 1447 1443 1440 1437 1434 1430 1428 1424
1485 1486 1486 1485 1484 1483 1482 1480 1478 1475 1472 1470 1467 1464 1460 1455 1450 1446 1442 1438 1435 1433 1429 1426 1421 1417 1412
1484 1484 1483 1482 1481 1479 1477 1475 1473 1472 1470 1466 1462 1458 1454 1450 1445 1439 1438 1433 1430 1427 1422 1417 1413 1408 1406
1482 1481 1480 1478 1477 1475 1473 1471 1468 1465 1464 1460 1456 1452 1448 1443 1437 1434 1429 1426 1423 1418 1414 1407 1404 1400 1397
1478 1477 1476 1475 1473 1471 1468 1465 1462 1460 1457 1454 1448 1443 1438 1433 1431 1426 1423 1419 1415 1411 1406 1400 1392 1392 1388
1474 1473 1472 1470 1468 1465 1462 1459 1456 1453 1450 1446 1442 1438 1431 1424 1421 1421 1416 1412 1407 1402 1400 1395 1386 1382 1379